Regional Weather Roundup
Issued by NWS

Home | Current Version | Previous Version | Graphics & Text | Print | Product List | Glossary On
Versions: 1 2 3 4 5 6 7 8 9 10 11 12 13 14 15 16 17 18 19 20 21 22 23 24 25 26 27 28 29 30 31 32 33 34 35 36 37 38 39 40 41 42 43 44 45 46 47 48 49 50
000
ASUS43 KLSX 052257
RWRMO

WEATHER SUMMARY FOR MISSOURI
NATIONAL WEATHER SERVICE SPRINGFIELD MO
500 PM CST MON DEC 05 2016

NOTE: "FAIR" INDICATES FEW OR NO CLOUDS BELOW 12,000 FEET WITH NO
       SIGNIFICANT WEATHER AND/OR OBSTRUCTIONS TO VISIBILITY.
       CURRENT SKY AND/OR WEATHER CONDITIONS ARE NOT AVAILABLE FOR
       CHILLICOTHE AND FARMINGTON.

MOZ001>031-035>038-043-044-053-054-060000-
...NORTHERN AND WESTERN MISSOURI...

CITY           SKY/WX    TMP DP  RH WIND       PRES   REMARKS
KANSAS CTY INT PTCLDY    42  31  64 S8        29.74S
LEE`S SUMMIT   CLEAR     46  32  58 SE10      29.76R
ST JOSEPH      CLEAR     45  34  65 S6        29.74S
CHILLICOTHE      N/A     46  37  71 SE7       29.79S

$$
MOZ066>068-077>081-088>096-101>105-060000-
...SOUTHWEST MISSOURI...

CITY           SKY/WX    TMP DP  RH WIND       PRES   REMARKS
SPRINGFIELD    PTCLDY    43  35  73 SE8       29.75F
JOPLIN         CLEAR     44  38  79 SE7       29.74F
BRANSON        MOCLDY    41  36  81 E9        29.76F

$$
MOZ032>034-039>042-045>050-055>058-069>072-060000-
...CENTRAL MISSOURI...

CITY           SKY/WX    TMP DP  RH WIND       PRES   REMARKS
COLUMBIA       NOT AVBL
JEFFERSON CITY PTCLDY    44  36  73 E7        29.82F
SEDALIA        CLOUDY    42  34  73 E7        29.80F
WARRENSBURG    CLEAR     45  32  61 E8        29.76F

$$
MOZ051-052-059>065-060000-
...EAST CENTRAL MISSOURI...

CITY           SKY/WX    TMP DP  RH WIND       PRES   REMARKS
ST LOUIS INTL  MOCLDY    42  34  73 E10       29.88F

$$
MOZ072>076-082>087-097>100-106>115-060000-
...SOUTH CENTRAL AND SOUTHEAST MISSOURI...

CITY           SKY/WX    TMP DP  RH WIND       PRES   REMARKS
CAPE GIRARDEAU PTCLDY    41  35  79 E8        29.89F
POPLAR BLUFF   CLOUDY    42  38  85 E6        29.87F
WEST PLAINS    CLOUDY    42  36  79 E6        29.82F

$$


USA.gov is the U.S. government's official web portal to all federal, state and local government web resources and services.